• în România
  • Lista ţărilor
  • Pe 7 zile
  • Temperatura apei
  • Hartă satelitară
  • Meteo pe hartă
  • Widget-uri
  • user-avatar
    Intrare

    Meteo pe oră la Staraya Toropa

    Astăzi, 19 Aprilie, Joi

    Timp Temperatura Precipitaţii Vânt Presiune Umiditate
    00:00 +6°C° 0,3 mm 5 m/s 742 mmHg 90%
    01:00 +6°C° 0,3 mm 5 m/s 742 mmHg 91%
    02:00 +6°C° 0 mm 4 m/s 742 mmHg 90%
    03:00 +6°C° 0,3 mm 4 m/s 742 mmHg 91%
    04:00 +5°C° 0,3 mm 4 m/s 742 mmHg 91%
    05:00 +5°C° 0,3 mm 5 m/s 742 mmHg 91%
    06:00 +5°C° 0,4 mm 5 m/s 742 mmHg 91%
    07:00 +5°C° 0,4 mm 5 m/s 742 mmHg 90%
    08:00 +5°C° 0 mm 5 m/s 742 mmHg 90%
    09:00 +6°C° 0,2 mm 5 m/s 742 mmHg 89%
    10:00 +6°C° 0,2 mm 4 m/s 742 mmHg 88%
    11:00 +6°C° 0,2 mm 4 m/s 742 mmHg 86%
    12:00 +7°C° 0,1 mm 4 m/s 743 mmHg 84%
    13:00 +7°C° 0,1 mm 5 m/s 743 mmHg 82%
    14:00 +8°C° 0,1 mm 5 m/s 743 mmHg 79%
    15:00 +10°C° 0 mm 4 m/s 743 mmHg 75%
    16:00 +10°C° 0 mm 4 m/s 743 mmHg 72%
    17:00 +11°C° 0 mm 4 m/s 744 mmHg 68%
    18:00 +10°C° 0 mm 4 m/s 744 mmHg 71%
    19:00 +8°C° 0 mm 4 m/s 744 mmHg 74%
    20:00 +8°C° 0 mm 3 m/s 745 mmHg 77%
    21:00 +7°C° 0 mm 3 m/s 745 mmHg 79%
    22:00 +7°C° 0 mm 3 m/s 745 mmHg 81%
    23:00 +5°C° 0 mm 3 m/s 746 mmHg 83%

    Mâine, 20 Aprilie, Vineri

    Timp Temperatura Precipitaţii Vânt Presiune Umiditate
    00:00 +5°C° 0 mm 3 m/s 746 mmHg 87%
    01:00 +4°C° 0 mm 3 m/s 746 mmHg 90%
    02:00 +4°C° 0 mm 3 m/s 746 mmHg 93%
    03:00 +4°C° 0 mm 3 m/s 747 mmHg 94%
    04:00 +4°C° 0 mm 3 m/s 747 mmHg 95%
    05:00 +4°C° 0 mm 3 m/s 747 mmHg 96%
    06:00 +4°C° 0 mm 3 m/s 747 mmHg 92%
    07:00 +5°C° 0 mm 3 m/s 747 mmHg 89%
    08:00 +7°C° 0 mm 3 m/s 748 mmHg 85%
    09:00 +8°C° 0 mm 3 m/s 748 mmHg 82%
    10:00 +8°C° 0 mm 3 m/s 748 mmHg 78%
    11:00 +9°C° 0 mm 3 m/s 748 mmHg 74%
    12:00 +10°C° 0 mm 2 m/s 747 mmHg 69%
    13:00 +12°C° 0 mm 2 m/s 747 mmHg 64%
    14:00 +13°C° 0 mm 2 m/s 747 mmHg 58%
    15:00 +13°C° 0 mm 2 m/s 747 mmHg 58%
    16:00 +13°C° 0 mm 2 m/s 746 mmHg 58%
    17:00 +14°C° 0 mm 2 m/s 746 mmHg 58%
    18:00 +12°C° 0 mm 2 m/s 745 mmHg 65%
    19:00 +10°C° 0 mm 2 m/s 745 mmHg 72%
    20:00 +8°C° 0 mm 2 m/s 744 mmHg 79%
    21:00 +8°C° 0 mm 2 m/s 743 mmHg 79%
    22:00 +8°C° 0 mm 3 m/s 743 mmHg 78%
    23:00 +8°C° 0 mm 3 m/s 742 mmHg 78%

    Poimâine, 21 Aprilie, Sâmbătă

    Timp Temperatura Precipitaţii Vânt Presiune Umiditate
    00:00 +8°C° 0 mm 3 m/s 741 mmHg 79%
    01:00 +8°C° 0 mm 4 m/s 740 mmHg 81%
    02:00 +8°C° 0 mm 4 m/s 739 mmHg 83%
    03:00 +8°C° 0 mm 4 m/s 738 mmHg 86%
    04:00 +8°C° 0 mm 4 m/s 737 mmHg 88%
    05:00 +7°C° 0 mm 4 m/s 736 mmHg 91%
    06:00 +9°C° 0 mm 5 m/s 735 mmHg 87%
    07:00 +10°C° 0 mm 5 m/s 734 mmHg 83%
    08:00 +11°C° 0 mm 6 m/s 733 mmHg 80%
    09:00 +11°C° 0,2 mm 6 m/s 733 mmHg 80%
    10:00 +11°C° 0,2 mm 6 m/s 732 mmHg 81%
    11:00 +11°C° 0,2 mm 6 m/s 731 mmHg 81%
    12:00 +11°C° 0,2 mm 7 m/s 731 mmHg 76%
    13:00 +11°C° 0,2 mm 7 m/s 731 mmHg 70%
    14:00 +11°C° 0,2 mm 8 m/s 731 mmHg 64%
    15:00 +10°C° 0 mm 7 m/s 732 mmHg 63%
    16:00 +9°C° 0 mm 7 m/s 732 mmHg 61%
    17:00 +9°C° 0 mm 6 m/s 733 mmHg 60%
    18:00 +8°C° 0,1 mm 5 m/s 733 mmHg 64%
    19:00 +7°C° 0,1 mm 5 m/s 734 mmHg 69%
    20:00 +6°C° 0,1 mm 4 m/s 734 mmHg 73%
    21:00 +6°C° 0 mm 4 m/s 734 mmHg 75%
    22:00 +5°C° 0 mm 4 m/s 735 mmHg 78%
    23:00 +5°C° 0 mm 4 m/s 735 mmHg 80%

    22 Aprilie, Duminică

    Timp Temperatura Precipitaţii Vânt Presiune Umiditate
    00:00 +5°C° 0,1 mm 4 m/s 735 mmHg 81%
    01:00 +5°C° 0,1 mm 4 m/s 736 mmHg 81%
    02:00 +5°C° 0,1 mm 4 m/s 736 mmHg 81%
    03:00 +4°C° 0,1 mm 4 m/s 736 mmHg 82%
    04:00 +4°C° 0,1 mm 4 m/s 736 mmHg 83%
    05:00 +4°C° 0,1 mm 4 m/s 736 mmHg 84%
    06:00 +4°C° 0,2 mm 4 m/s 737 mmHg 83%
    07:00 +4°C° 0,2 mm 4 m/s 737 mmHg 82%
    08:00 +5°C° 0,2 mm 4 m/s 737 mmHg 80%
    09:00 +5°C° 0,1 mm 4 m/s 737 mmHg 78%
    10:00 +6°C° 0,1 mm 4 m/s 737 mmHg 76%
    11:00 +6°C° 0,1 mm 4 m/s 738 mmHg 73%
    12:00 +7°C° 0,3 mm 4 m/s 738 mmHg 70%
    13:00 +8°C° 0,3 mm 4 m/s 738 mmHg 67%
    14:00 +10°C° 0,3 mm 4 m/s 738 mmHg 63%
    15:00 +8°C° 0,5 mm 4 m/s 738 mmHg 66%
    16:00 +8°C° 0,5 mm 4 m/s 738 mmHg 68%
    17:00 +7°C° 0,5 mm 4 m/s 738 mmHg 71%
    18:00 +7°C° 0,2 mm 3 m/s 738 mmHg 77%
    19:00 +6°C° 0,2 mm 2 m/s 739 mmHg 83%
    20:00 +6°C° 0,2 mm 1 m/s 739 mmHg 89%
    21:00 +5°C° 0 mm 1 m/s 739 mmHg 91%
    22:00 +4°C° 0 mm 1 m/s 740 mmHg 93%
    23:00 +3°C° 0 mm 1 m/s 740 mmHg 95%

    23 Aprilie, Luni

    Timp Temperatura Precipitaţii Vânt Presiune Umiditate
    00:00 +3°C° 0 mm 1 m/s 740 mmHg 95%
    01:00 +2°C° 0 mm 1 m/s 741 mmHg 94%
    02:00 +2°C° 0 mm 1 m/s 741 mmHg 94%
    03:00 +1°C° 0 mm 1 m/s 741 mmHg 93%
    04:00 +1°C° 0 mm 1 m/s 741 mmHg 91%
    05:00 +1°C° 0 mm 1 m/s 742 mmHg 90%
    06:00 +3°C° 0 mm 1 m/s 742 mmHg 82%
    07:00 +5°C° 0 mm 1 m/s 742 mmHg 75%
    08:00 +6°C° 0 mm 0 m/s 742 mmHg 67%
    09:00 +7°C° 0 mm 0 m/s 742 mmHg 60%
    10:00 +9°C° 0 mm 0 m/s 743 mmHg 54%
    11:00 +11°C° 0 mm 0 m/s 743 mmHg 48%
    12:00 +11°C° 0 mm 0 m/s 742 mmHg 47%
    13:00 +12°C° 0 mm 1 m/s 742 mmHg 46%
    14:00 +11°C° 0 mm 1 m/s 742 mmHg 44%
    15:00 +11°C° 0 mm 1 m/s 742 mmHg 45%
    16:00 +11°C° 0 mm 1 m/s 741 mmHg 46%
    17:00 +10°C° 0 mm 1 m/s 741 mmHg 47%
    18:00 +9°C° 0 mm 1 m/s 741 mmHg 53%
    19:00 +8°C° 0 mm 1 m/s 741 mmHg 58%
    20:00 +7°C° 0 mm 1 m/s 741 mmHg 64%
    21:00 +6°C° 0 mm 1 m/s 741 mmHg 66%
    22:00 +6°C° 0 mm 1 m/s 740 mmHg 69%
    23:00 +5°C° 0 mm 1 m/s 740 mmHg 71%

    24 Aprilie, Marţi

    Timp Temperatura Precipitaţii Vânt Presiune Umiditate
    00:00 +5°C° 0 mm 1 m/s 740 mmHg 73%
    01:00 +3°C° 0 mm 2 m/s 739 mmHg 75%
    02:00 +3°C° 0 mm 2 m/s 739 mmHg 77%
    03:00 +3°C° 0 mm 2 m/s 738 mmHg 78%
    04:00 +2°C° 0 mm 3 m/s 738 mmHg 78%
    05:00 +2°C° 0 mm 3 m/s 738 mmHg 78%
    06:00 +3°C° 0,2 mm 3 m/s 737 mmHg 77%
    07:00 +4°C° 0,2 mm 4 m/s 736 mmHg 75%
    08:00 +5°C° 0,2 mm 5 m/s 736 mmHg 74%
    09:00 +5°C° 0,9 mm 5 m/s 735 mmHg 78%
    10:00 +5°C° 0,9 mm 5 m/s 735 mmHg 81%
    11:00 +5°C° 0,9 mm 5 m/s 734 mmHg 85%
    12:00 +5°C° 0,6 mm 4 m/s 734 mmHg 87%
    13:00 +5°C° 0,6 mm 4 m/s 734 mmHg 88%
    14:00 +6°C° 0,6 mm 4 m/s 734 mmHg 90%
    15:00 +7°C° 0,1 mm 3 m/s 734 mmHg 89%
    16:00 +8°C° 0,1 mm 3 m/s 733 mmHg 89%
    17:00 +8°C° 0,1 mm 2 m/s 733 mmHg 88%
    18:00 +8°C° 0,2 mm 2 m/s 733 mmHg 91%
    19:00 +7°C° 0,2 mm 2 m/s 733 mmHg 93%
    20:00 +7°C° 0,2 mm 2 m/s 733 mmHg 95%
    21:00 +6°C° 0,1 mm 2 m/s 733 mmHg 95%
    22:00 +6°C° 0,1 mm 2 m/s 733 mmHg 95%
    23:00 +6°C° 0,1 mm 2 m/s 733 mmHg 95%
    Arată mai mult